User: anonymous   Login
Location: Unspecified
(0.0000°N, 0.0000°E)
Time: 08:04:48
(UTC+00:00)
Language:

Nova 1 - Orbit

View from above orbital plane
View from above orbital plane
View from above satellite
View from above satellite

Ground track
Ground track

The orbit data is extracted from the following two-line orbital elements,

1 12458U 81044A   19345.81571632  .00000023  00000-0  33030-4 0  9990
2 12458  89.9223 116.1042 0015026  34.9200  79.6836 13.23011624862156
Epoch (UTC): 11 December 2019 19:34:37
Eccentricity: 0.0015026
inclination: 89.9223°
perigee height: 1162 km
apogee height: 1184 km
right ascension of ascending node: 116.1042°
argument of perigee: 34.9200°
revolutions per day: 13.23011624
mean anomaly at epoch: 79.6836°
orbit number at epoch: 86215

The dashed part of the orbit path shows where the satellite is in the earth's shadow,  

DLR